Regional Weather Roundup
Issued by NWS

Home | Current Version | Previous Version | Text Only | Print | Product List | Glossary Off
Versions: 1 2 3 4 5 6 7 8 9 10 11 12 13 14 15 16 17 18 19 20 21 22 23 24 25 26 27 28 29 30 31 32 33 34 35 36 37 38 39 40 41 42 43 44 45 46 47 48 49 50

299
ASUS43 KOAX 280102
RWRNE

WEATHER ROUNDUP FOR NEBRASKA
NATIONAL WEATHER SERVICE OMAHA NE
700 PM CST MON FEB 27 2017

NOTES: SATELLITE DATA IS BEING USED TO AUGMENT CLOUD COVER ABOVE
       12000 FEET.
       "FAIR" INDICATES FEW OR NO CLOUDS BELOW 12,000 FEET WITH NO
       SIGNIFICANT WEATHER AND/OR OBSTRUCTIONS TO VISIBILITY.

  * THESE STATIONS DO NOT REPORT WEATHER SUCH AS RAIN...SNOW OR FOG.

NEZ001>004-019>022-054>056-280200-
NEBRASKA PANHANDLE

CITY           SKY/WX    TMP DP  RH WIND       PRES   REMARKS
SCOTTSBLUFF    CLEAR     33  26  75 NW12      29.62R WCI  24
ALLIANCE       CLOUDY    32  23  69 N21       29.60R WCI  20
CHADRON        LGT SNOW  32  27  81 SW5       29.65R WCI  27
KIMBALL        CLOUDY    31  26  79 N17G29    29.58R WCI  20
SIDNEY         CLOUDY    41  20  43 S6        29.52S
$$

NEZ057>060-069>072-079>082-280200-
SOUTHWEST NEBRASKA

CITY           SKY/WX    TMP DP  RH WIND       PRES   REMARKS
NORTH PLATTE   CLEAR     37  21  52 E8        29.60F WCI  31
IMPERIAL       CLEAR     44  21  40 E12       29.54F
LEXINGTON      CLEAR     44  25  47 SE5       29.64S
MCCOOK         CLOUDY    47  21  35 E10       29.59F
OGALLALA       CLEAR     45  26  47 E10       29.54F
$$

NEZ005>010-023>029-035>040-094-280200-
NORTH CENTRAL NEBRASKA

CITY           SKY/WX    TMP DP  RH WIND       PRES   REMARKS
VALENTINE      CLOUDY    38  29  70 N5        29.63R WCI  34
AINSWORTH      CLEAR     36  32  84 E6        29.63S WCI  31
BROKEN BOW     CLEAR     37  30  75 CALM      29.64R
O`NEILL        CLEAR     41  32  72 SE5       29.67S
ORD            CLEAR     46  33  60 SE3       29.65S
THEDFORD       CLEAR     38  30  73 SE5       29.61F WCI  34
$$

NEZ041-046>049-061>064-073>077-083>087-280200-
SOUTH CENTRAL NEBRASKA

CITY           SKY/WX    TMP DP  RH WIND       PRES   REMARKS
GRAND ISLAND   CLEAR     48  39  71 S10       29.68S
AURORA         CLEAR     46  39  76 SE8       29.69S
HASTINGS       PTCLDY    48  38  68 SE8       29.68S
HEBRON         PTCLDY    48  39  72 S5        29.70R
HOLDREGE       CLOUDY    46  20  36 SE5       29.65S
KEARNEY *      CLOUDY    45  25  45 S6        29.67R
YORK           CLEAR     46  39  76 SE12      29.70S
$$

NEZ011>018-030>034-042>045-280200-
NORTHEAST NEBRASKA

CITY           SKY/WX    TMP DP  RH WIND       PRES   REMARKS
NORFOLK        CLOUDY    43  30  60 SE8       29.70F
ALBION         CLEAR     41  33  74 SE6       29.69S
BLAIR          PTCLDY    47  31  52 SE8       29.74S
FREMONT        CLEAR     46  32  57 SE9       29.73F
TEKAMAH        CLEAR     41  31  67 SE13      29.74F
WAYNE          PTCLDY    38  32  77 SE10      29.72S WCI  32
$$

NEZ050>053-065>068-078-088>093-280200-
SOUTHEAST NEBRASKA

CITY           SKY/WX    TMP DP  RH WIND       PRES   REMARKS
LINCOLN        CLOUDY    49  35  58 SE6       29.74S
OMAHA EPPLEY   PTCLDY    46  28  49 SE8       29.75F
BEATRICE       PTCLDY    53  39  59 SE7       29.72R
FALLS CITY     PTCLDY    55  34  45 SE14      29.73F
NEBRASKA CITY  CLOUDY    52  30  43 SE6       29.74F
PLATTSMOUTH    CLOUDY    49  30  47 CALM      29.75S
$$

NEZ044-045-051>053-067-280200-
OMAHA AREA

CITY           SKY/WX    TMP DP  RH WIND       PRES   REMARKS
OMAHA EPPLEY   PTCLDY    46  28  49 SE8       29.75F
BLAIR          PTCLDY    47  31  52 SE8       29.74S
FREMONT        CLEAR     46  32  57 SE9       29.73F
MILLARD        CLEAR     50  32  49 E5        29.74F
OFFUTT AFB     LGT RAIN  47  33  57 SE7       29.75F
PLATTSMOUTH    CLOUDY    49  30  47 CALM      29.75S
WAHOO          MOCLDY    42  33  71 SE9       29.73F
$$




USA.gov is the U.S. government's official web portal to all federal, state and local government web resources and services.